Tracking 27112 objects as of 26-Mar-2023
HD Live streaming from Space Station
objects crossing your sky now

STARLINK-2038

Track STARLINK-2038 now!
10-day predictions
STARLINK-2038 is classified as:


NORAD ID: 47654
Int'l Code: 2021-012AL
Perigee: 553.7 km
Apogee: 555.4 km
Inclination: 53.1 °
Period: 95.6 minutes
Semi major axis: 6925 km
RCS: Unknown
Launch date: February 16, 2021
Source: United States (US)
Launch site: AIR FORCE EASTERN TEST RANGE (AFETR)
Your satellite tracking list
Your tracking list is empty




NASA's NSSDC Master Catalog

Two Line Element Set (TLE):
1 47654U 21012AL  23085.15741517  .00031501  00000-0  21279-2 0  9994
2 47654  53.0530 237.8224 0001169  74.2588 285.8530 15.06335715116750
Source of the keplerian elements: AFSPC